Location: Huerta de Vero
(42.1150°N, 0.0147°E)
Time: 17:22:23
(UTC+00:00)

Daily predictions for brighter satellites

Satellite Brightness Start Highest point End
(mag) Time Altitude Azimuth Time Altitude Azimuth Time Altitude Azimuth
Cosmos 1461 3.2 20:08:06 10° NNW 20:12:51 87° ENE 20:17:36 10° SSE
Cosmos 1455 3.5 20:09:51 10° NNE 20:13:06 26° ENE 20:16:21 10° SE
COSMOS 2428 4.3 20:16:40 10° SE 20:19:51 15° E 20:23:01 10° ENE
Geosat 4.0 20:15:44 10° SSE 20:20:45 84° ENE 20:25:49 10° NNW
Cosmos 1812 Rocket 3.8 20:19:14 10° N 20:23:29 51° E 20:27:41 10° SSE
Delta 2 Rocket 3.9 20:22:31 10° SW 20:25:27 26° S 20:28:10 11° ESE
CZ-2C R/B 4.1 20:22:49 10° N 20:27:35 75° WNW 20:32:20 10° SSW
Cosmos 1602 Rocket 3.5 20:23:28 10° S 20:27:51 78° E 20:32:19 10° N
Cosmos 2263 Rocket 3.3 20:27:42 10° NW 20:32:55 42° WSW 20:38:06 10° S
Atlas Centaur 2 3.4 20:28:27 10° SW 20:33:14 27° S 20:38:47 11° ESE
MetOp-B 4.4 20:28:07 10° SSE 20:33:18 54° ENE 20:38:32 10° N
Nadezhda 1 Rocket 4.2 20:27:51 10° N 20:34:13 63° E 20:40:31 10° SSE
Terra 3.9 20:32:38 10° E 20:35:08 14° ENE 20:37:38 10° NNE
Cosmos 2219 Rocket 3.3 20:31:23 10° SSE 20:35:43 24° ESE 20:40:03 10° NE
Cosmos 2360 Rocket 2.2 20:31:44 10° SSW 20:37:20 72° ESE 20:42:59 10° NNE
IGS 5A 4.2 20:35:34 12° SE 20:39:02 38° ENE 20:42:53 10° N
Meteor 2-1 Rocket 4.4 20:33:55 10° N 20:39:47 89° WSW 20:45:42 10° S
IRIS 4.0 20:37:40 10° WSW 20:41:02 55° S 20:43:18 11° E
Cosmos 2333 Rocket 3.0 20:40:29 10° SSE 20:45:23 31° ESE 20:50:21 10° NE
Resurs 01 Rocket 2.0 20:46:23 10° S 20:50:45 63° WSW 20:55:08 10° NNW
Cosmos 1818 3.6 20:47:07 10° SSW 20:52:32 86° WNW 20:58:01 10° NNE
Cosmos 773 Rocket 4.3 20:50:27 10° S 20:55:29 46° ESE 21:00:32 10° NNE
CZ-2C R/B 4.3 20:50:42 10° N 20:55:37 37° WNW 21:00:25 10° SW
Cosmos-2242 3.3 20:51:46 10° N 20:56:01 51° E 20:59:05 18° SSE
SL-16 R/B 3.9 20:51:10 10° SW 20:56:23 37° WNW 21:01:39 10° N
ERS-1 Rocket 3.7 20:56:51 17° SE 21:00:20 39° ENE 21:05:00 10° N
GEOS 3 Rocket 3.7 21:00:14 10° NE 21:05:40 84° SE 21:11:03 10° SW
Cosmos 2278 Rocket 4.0 21:04:56 10° N 21:09:03 20° NE 21:13:08 10° E
USA 215 3.2 21:02:42 10° NE 21:09:10 61° SE 21:15:36 10° SSW
ATLAS 5 CENTAUR R/B 1.9 21:05:18 10° SW 21:09:21 64° NW 21:13:53 10° NNE
Meteor 1-11 4.4 21:05:32 14° SSE 21:10:14 54° E 21:15:46 10° NNE
USA 245 2.9 21:08:35 22° SSE 21:10:32 88° WSW 21:14:30 10° NNW
Cosmos 1758 Rocket 3.8 21:08:53 10° SSW 21:13:21 71° W 21:17:52 10° N
Cosmos 1844 Rocket 2.6 21:08:48 10° NNW 21:14:24 88° ENE 21:18:16 21° SSE
Cosmos 1400 Rocket 2.7 21:11:20 10° N 21:15:20 83° E 21:17:42 23° SSE
SPOT 5 3.4 21:13:56 21° SE 21:17:00 48° ENE 21:21:39 10° N
Meteor 2-10 Rocket 4.3 21:13:31 10° NNW 21:18:27 49° W 21:23:31 10° SSW
Spot 2 Rocket 3.7 21:16:44 16° S 21:20:47 73° WSW 21:25:55 10° NNW
OAO 3 Rocket 4.2 21:18:03 10° WSW 21:22:19 30° SSW 21:23:58 24° SSE
USA 81 4.2 21:19:51 21° SSE 21:23:17 56° E 21:28:28 10° NNE
Landsat 7 4.0 21:21:48 18° S 21:25:20 69° WSW 21:30:05 10° NNW
BREEZE M DEB (TANK) 2.4 21:24:46 10° NW 21:27:10 45° NNE 21:27:39 35° ENE
Cosmos 2181 Rocket 4.1 21:24:04 10° N 21:30:24 66° E 21:34:15 24° SSE
SPOT 1/Viking Rocket 3.7 21:31:53 21° S 21:35:24 70° WSW 21:40:34 10° NNW
Cosmos 1953 Rocket 3.6 21:33:11 17° SSW 21:36:29 74° W 21:40:49 10° N
USA 267 4.2 21:34:19 10° E 21:40:25 43° NNE 21:46:32 10° NW
SAR-Lupe-2 4.5 21:41:46 10° N 21:45:14 47° WNW 21:47:57 15° SW
Cosmos 2084 4.2 21:41:54 10° NNW 21:46:12 47° NE 21:48:05 29° ESE
OAO 2 Rocket 3.9 21:42:17 10° WSW 21:47:12 39° S 21:48:29 33° SSE
Cosmos 1842 Rocket 4.0 21:43:36 10° N 21:47:49 47° ENE 21:49:02 36° ESE
Cosmos 1455 4.5 21:45:39 10° NW 21:48:33 21° W 21:51:27 10° SW
MTI 4.4 21:50:42 10° NNE 21:53:10 38° ENE 21:53:10 38° ENE
Cosmos 923 Rocket 4.4 21:52:20 34° SE 21:53:49 42° ESE 21:58:48 10° NNE
Cosmos 1825 4.4 21:58:09 13° ENE 21:58:09 13° ENE 21:59:23 10° NE
ATLAS CENTAUR R/B 1.3 21:54:08 10° NNW 21:57:46 58° NE 21:58:26 48° E
Cosmos 1980 4.1 21:56:55 34° SE 21:58:33 42° ESE 22:03:50 10° NE
Cosmos 967 Rocket 4.5 21:55:33 17° SSW 22:00:33 65° ESE 22:06:57 10° NE
COSMOS 2428 2.9 21:57:44 10° SSW 22:03:23 74° WNW 22:09:05 10° NNE
Cosmos 1869 3.3 22:04:49 10° N 22:08:47 65° E 22:09:23 56° SE
NOSS 0 Rocket 3.9 22:07:31 29° S 22:10:47 67° ESE 22:16:54 10° NNE
Terra 1.9 22:10:34 38° S 22:12:17 69° WSW 22:17:03 10° NNW
Cosmos 2237 Rocket 2.3 22:14:58 40° SSE 22:16:45 57° ESE 22:22:20 10° NNE
Genesis I 4.3 22:18:35 32° ENE 22:18:35 32° ENE 22:21:08 10° NE
BREEZE-M DEB (TANK) 4.4 22:15:29 10° W 22:18:33 27° SW 22:18:38 27° SSW
Cosmos 2344 3.7 22:16:02 31° SSE 22:19:11 48° ESE 22:26:31 10° NE
Cosmos 2219 Rocket 3.0 22:13:53 10° SW 22:19:17 49° WNW 22:24:44 10° NNE
Elektron 1 4.1 22:21:21 67° E 22:21:21 67° E 22:25:23 10° NE
Atlas Centaur 2 3.6 22:16:23 10° WSW 22:21:21 27° SSW 22:21:21 27° SSW
BREEZE-M R/B 3.9 22:12:09 10° WNW 22:21:56 69° SW 22:23:36 44° SSE
DELTA 2 R/B (1) 3.6 22:22:11 10° WSW 22:27:37 54° SSE 22:30:03 31° ESE
Cosmos 1315 Rocket 3.9 22:25:06 10° NNW 22:28:55 38° W 22:29:55 32° SW
Cosmos 2333 Rocket 3.5 22:24:12 10° SW 22:29:30 39° WNW 22:34:52 10° N
Cosmos 2184 Rocket 4.1 22:27:10 30° SSW 22:30:28 75° W 22:36:47 10° N
Thor Agena Rocket 3.6 22:27:32 10° NNE 22:32:32 54° E 22:33:18 49° SE
Meteor 2-2 Rocket 4.3 22:28:10 10° NNW 22:33:58 77° W 22:35:55 43° S
Cosmos 2221 2.9 22:34:17 10° NNW 22:38:34 55° W 22:39:20 48° SW
BREEZE-M DEB (TANK) 3.6 22:36:33 10° WNW 22:40:12 26° N 22:41:22 19° NE
Cosmos 1892 2.8 22:41:59 63° W 22:42:09 63° W 22:45:55 10° N
Iridium 2 4.1 22:38:58 10° N 22:42:26 54° ENE 22:42:26 54° ENE
ATLAS 2AS CENTAUR R/B 3.2 22:35:26 10° NNW 22:42:53 58° NE 22:46:25 30° ESE
EO 1 Del DPAF 3.6 22:41:48 10° NNE 22:44:59 53° ENE 22:44:59 53° ENE
Okean 3 Rocket 4.5 22:47:03 36° E 22:47:03 36° E 22:50:54 10° NNE
MOS 1-B Rocket 4.3 22:40:05 10° NNE 22:47:39 68° ESE 22:49:56 43° SSE
Cosmos 2112 Rocket 3.9 22:48:23 51° SSW 22:49:48 88° ESE 22:55:11 10° NNE
USA 215 4.2 22:45:50 10° NE 22:52:03 47° NNW 22:58:13 10° W
Cosmos 1606 4.2 22:49:16 10° NNE 22:52:19 27° ENE 22:52:19 27° ENE
Cosmos 2278 Rocket 2.2 22:48:03 10° NNW 22:53:42 70° WSW 22:54:59 52° S
Cosmos 158 Rocket 3.8 22:52:56 53° SW 22:54:02 78° WNW 22:58:57 10° NNE
Lacrosse 5 rocket 4.4 22:58:07 10° N 22:59:22 11° N 23:00:37 10° NNE
Spot 4 3.7 22:59:07 69° SSE 22:59:42 86° ENE 23:04:30 10° NNW
SL-16 R/B 2.5 23:00:46 46° ESE 23:01:07 47° ESE 23:06:32 10° NE
Cosmos 1943 Rocket 4.1 22:57:05 10° N 23:01:22 21° NE 23:04:40 13° E
TIMED 4.4 23:01:49 78° E 23:01:49 78° E 23:06:05 10° NNE
Cosmos 2058 3.9 23:01:10 36° WSW 23:01:54 40° WNW 23:05:49 10° N
Cosmos 1408 3.2 23:03:24 52° NW 23:03:24 52° NW 23:06:31 10° N
Gblst 52 Del rocket 4.3 22:59:58 10° WNW 23:05:51 73° SW 23:07:28 51° SSE
Cosmos 2056 Rocket 3.6 23:01:32 10° NNW 23:06:57 70° ENE 23:07:58 56° SE
Cosmos 2154 Rocket 4.4 23:07:50 34° SW 23:10:23 57° W 23:16:31 10° N
Nadezhda 3 Rocket 4.3 23:05:40 10° NNW 23:11:57 62° W 23:13:54 43° SSW
Cosmos 2341 Rocket 3.9 23:11:46 52° S 23:13:25 85° E 23:19:40 10° N
Cosmos 1680 Rocket 4.4 23:15:58 29° WSW 23:18:17 45° WNW 23:23:25 10° N
Meteor 2-3 Rocket 4.1 23:21:02 44° ESE 23:21:39 46° E 23:27:03 10° NNE
USA 267 3.2 23:21:24 49° SSE 23:23:11 69° SW 23:29:45 10° NW
Cosmos 2151 3.2 23:23:52 64° W 23:23:52 64° W 23:28:06 10° N
IRIDIUM 104 4.3 23:23:26 61° ESE 23:23:56 65° E 23:29:07 10° N
Helios 1A 4.1 23:24:53 34° ENE 23:24:57 34° ENE 23:28:44 10° N
SL-8 Rocket 3.9 23:30:59 57° S 23:32:22 88° ESE 23:38:34 10° N
Cosmos 1825 3.3 23:32:56 37° WNW 23:32:56 37° WNW 23:36:12 10° N
IRIDIUM 114 4.2 23:32:35 71° SE 23:33:05 79° E 23:38:19 10° N
Cosmos 1340 3.6 23:34:23 42° NE 23:34:23 42° NE 23:37:06 10° NNE
Cosmos 1452 Rocket 4.3 23:28:55 10° N 23:33:55 43° ENE 23:35:06 37° E
BREEZE-M DEB (TANK) 4.4 23:31:25 10° WNW 23:32:45 16° W 23:32:45 16° W
ALOS 2 2.6 23:35:27 78° WNW 23:35:27 78° WNW 23:39:41 10° NNW
COSMOS 2455 3.9 23:29:46 10° NNW 23:35:25 39° NE 23:38:24 24° ESE
Cosmos 1408 Rocket 3.8 23:35:56 58° ENE 23:35:56 58° ENE 23:39:53 10° NNE
Meteor 2-12 Rocket 4.3 23:37:27 59° S 23:38:41 82° E 23:44:50 10° N
Cosmos 1933 3.7 23:34:46 10° N 23:38:13 61° NNE 23:38:13 61° NNE
Cosmos 1151 Rocket 3.1 23:36:02 10° N 23:40:03 75° NNE 23:40:03 75° NNE
IRIDIUM 103 4.1 23:41:42 73° SSW 23:42:13 86° W 23:47:28 10° N
Cosmos 44 3.3 23:43:37 62° WNW 23:43:43 62° NW 23:48:06 10° NNE
Cosmos 2369 Rocket 3.6 23:41:13 10° N 23:46:10 31° NE 23:48:49 21° E
Cosmos 1727 Rocket 4.2 23:40:23 10° N 23:46:34 61° E 23:48:04 48° SE
GP-B 3.3 23:44:32 10° N 23:48:50 62° WNW 23:48:50 62° WNW
Cosmos 371 Rocket 3.2 23:45:23 10° NNW 23:50:15 77° ENE 23:50:25 76° E
Helios 1B rocket 4.0 23:52:33 10° NE 23:55:23 27° ENE 23:55:23 27° ENE
